Regional Weather Roundup
Issued by NWS Sioux Falls, SD

Home | Current Version | Previous Version | Text Only | Print | Product List | Glossary Off
Versions: 1 2 3 4 5 6 7 8 9 10 11 12 13 14 15 16 17 18 19 20 21 22 23 24 25 26 27 28 29 30 31 32 33 34 35 36 37 38 39 40 41 42 43 44 45 46 47 48 49 50

000
ASUS43 KFSD 190510
RWRFSD

WEATHER ROUNDUP FOR SE SOUTH DAKOTA/SW MINNESOTA/NW IOWA
NATIONAL WEATHER SERVICE SIOUX FALLS SD
1200 AM CDT FRI SEP 19 2014

NOTE: "FAIR" INDICATES FEW OR NO CLOUDS BELOW 12,000 FEET WITH NO
SIGNIFICANT WEATHER AND OR OBSTRUCTIONS TO VISIBILITY.


SDZ038>040-050-052>070-190600-
SOUTHEAST SOUTH DAKOTA

CITY           SKY/WX    TMP DP  RH WIND       PRES   REMARKS
CHAMBERLAIN    CLEAR     62  60  94 SE8       29.78F
HURON          PTCLDY    65  57  75 S15G25    29.80F
MADISON        FAIR      61  59  94 S15G25    29.89S
MITCHELL       CLOUDY    67  58  72 S17G25    29.83F
SIOUX FALLS    PTCLDY    63  55  75 S18       29.91S
WINNER         FAIR      69  62  78 S26G35    29.76F
YANKTON        CLOUDY    64  55  72 SE14      29.90S
$$

MNZ071-072-080-081-089-090-097-098-190600-
SOUTHWEST MINNESOTA

CITY           SKY/WX    TMP DP  RH WIND       PRES   REMARKS
FAIRMONT       MOCLDY    55  43  62 S13       29.98F
JACKSON        CLEAR     61  50  67 S13       29.97F
LUVERNE        PTCLDY    61  54  77 S12G17    29.93F
MARSHALL       MOCLDY    64  52  63 S21G26    29.89S
MONTEVIDEO     CLEAR     61  54  77 S10       29.90S
PIPESTONE      PTCLDY    61  54  77 S15       29.92R
REDWOOD FALLS  CLEAR     60  49  66 S14       29.92F
TRACY          MOCLDY    62  54  74 S14G20    29.91S
WINDOM         CLEAR     61  52  72 S12G17    29.95F
WORTHINGTON    PTCLDY    59  52  77 S13G26    29.95F
$$

IAZ001>003-012>014-020>022-031-032-NEZ013-014-SDZ071-190600-
NORTHWEST IOWA

CITY           SKY/WX    TMP DP  RH WIND       PRES   REMARKS
CHEROKEE       PTCLDY    58  56  93 S8        29.98S
DENISON        CLEAR     61  57  88 SE13      29.98R
ESTHERVILLE    CLEAR     57  51  80 S10       29.98F
LE MARS          N/A     59  55  88 S10       29.96S
ORANGE CITY    PTCLDY    61  54  77 S10G16    29.95F
SHELDON        PTCLDY    59  54  82 S13       29.94F
SIOUX CITY     CLEAR     60  55  83 SE10      29.95S
SPENCER        PTCLDY    59  53  80 S10       29.98F
STORM LAKE     CLEAR     57  57 100 S13G18    29.99S
$$

ABBREVIATIONS USED IN REMARKS
   TC - TEMPERATURE IN CELSIUS
  WCI - WIND CHILL INDEX
   HX - HEAT INDEX
  VSB - VISIBILITY




USA.gov is the U.S. government's official web portal to all federal, state and local government web resources and services.